Home > Weather > Mount Pearl > Past weeks

Flag for Canada Past Weather in Mount Pearl, Newfoundland and Labrador, Canada — Yesterday and Last 2 Weeks

Now
73 °F

Broken clouds.


Feels Like: 75 °F
Forecast: N/A
Wind: 21 mph from Southwest

Location: St. John's

Current Time: Jun 30, 2016 at 6:53:44 PM

Latest Report: Jun 30, 2016 at 6:30 PM


Visibility: 15 mi

Pressure: 30.09 "Hg

Humidity: 74%

Dew Point: 64 °F

Location of Mount PearlLocation

Past Weather in Mount Pearl — Graph

°F

Mount Pearl Temperature Yesterday

Maximum temperature yesterday: 79 °F (at 2:30 PM)
Minimum temperature yesterday: 64 °F (at 1:30 AM)
Average temperature yesterday: 71 °F

High & Low Weather Summary for the Past Weeks

 TemperatureHumidityPressure
High81 °F (Jun 30, 3:30 PM)100% (Jun 16, 5:30 PM)30.34 "Hg (Jun 16, 5:30 PM)
Low37 °F (Jun 18, 10:30 PM)31% (Jun 26, 11:30 AM)29.49 "Hg (Jun 17, 1:30 AM)
Average60 °F77%30.01 "Hg
* Reported Jun 15 5:30 PM — Jun 30 5:30 PM, Mount Pearl, Weather by CustomWeather, © 2016

Note: Actual official high and low records may vary slightly from our data, if they occured in-between our weather recording intervals... More about our weather records

Advertising

Mount Pearl Weather History for the Previous 24 Hours

Scroll right to see more
 ConditionsComfort  
Time TempWeatherWind HumidityBarometerVisibility
5:30 PM
Thu, Jun 30
77 °FBroken clouds.26 mph65%30.10 "Hg15 mi
4:30 PM79 °FBroken clouds.28 mph58%30.11 "Hg15 mi
3:30 PM81 °FBroken clouds.28 mph58%30.12 "Hg15 mi
2:30 PM79 °FBroken clouds.24 mph61%30.13 "Hg15 mi
1:30 PM77 °FPartly sunny.22 mph65%30.16 "Hg15 mi
12:30 PM79 °FBroken clouds.23 mph65%30.17 "Hg15 mi
11:30 AM77 °FPartly sunny.24 mph69%30.18 "Hg15 mi
10:30 AM75 °FPartly sunny.18 mph74%30.19 "Hg15 mi
9:30 AM72 °FPartly sunny.21 mph83%30.20 "Hg15 mi
8:30 AM72 °FPartly sunny.18 mph83%30.21 "Hg15 mi
7:30 AM70 °FPartly sunny.20 mph83%30.21 "Hg15 mi
6:30 AM66 °FBroken clouds.16 mph94%30.22 "Hg15 mi
5:30 AM66 °FMostly cloudy.16 mph94%30.22 "Hg15 mi
4:30 AM66 °FPassing clouds.13 mph94%30.22 "Hg15 mi
3:30 AM66 °FPassing clouds.13 mph94%30.23 "Hg15 mi
2:30 AM66 °FPassing clouds.14 mph94%30.25 "Hg15 mi
1:30 AM66 °FPassing clouds.14 mph94%30.25 "Hg15 mi
12:30 AM66 °FPassing clouds.15 mph94%30.27 "Hg15 mi
11:30 PM
Wed, Jun 29
66 °FMostly cloudy.14 mph94%30.28 "Hg12 mi
10:30 PM66 °FLow clouds.16 mph88%30.28 "Hg12 mi
9:30 PM66 °FBroken clouds.15 mph88%30.28 "Hg15 mi
8:30 PM70 °FBroken clouds.20 mph83%30.27 "Hg15 mi
7:30 PM72 °FBroken clouds.16 mph78%30.27 "Hg15 mi
6:30 PM75 °FPartly sunny.23 mph65%30.27 "Hg15 mi
Weather by CustomWeather, © 2016

See weather overviewHow to use our weather pages